This demonstration page uses our WeatherBlox Daily Observations layout. Learn more.

Left ArrowRight Arrow

38.80484, -77.04692

Hourly Observations for November 12, 2015

Temp ( °F °C ) Dew Point ( °F °C ) Humidity (%) Winds ( mph kmh ) Pressure ( in mb ) Visibility ( mi km ) Precip ( " mm )
12:52 am 00:52 Mostly Cloudy 51 10.6 45 7.2 80 80 Calm 29.97 1015 10 16 0.00 0.00
1:52 am 01:52 Mostly Cloudy 50 10 46 7.8 86 86 Calm 29.96 1015 10 16 0.00 0.00
2:52 am 02:52 Cloudy 49 9.4 45 7.2 86 86 SSW 6 9 29.96 1014 10 16 0.00 0.00
3:52 am 03:52 Cloudy 50 10 46 7.8 86 86 Calm 29.94 1014 10 16 0.00 0.00
4:52 am 04:52 Cloudy 50 10 47 8.3 89 89 Calm 29.94 1014 10 16 0.00 0.00
5:52 am 05:52 Cloudy 50 10 47 8.3 89 89 Calm 29.92 1013 10 16 0.00 0.00
6:52 am 06:52 Cloudy 50 10 46 7.8 86 86 Calm 29.88 1012 10 16 0.00 0.00
7:52 am 07:52 Cloudy 53 11.7 48 8.9 83 83 S 9 15 29.86 1011 10 16 0.00 0.00
8:52 am 08:52 Cloudy 55 12.8 50 10 83 83 S 7 11 29.86 1011 10 16 0.00 0.00
9:52 am 09:52 Cloudy with Light Rain 55 12.8 50 10 83 83 S 9 15 29.84 1011 10 16 0.00 0.03
10:52 am 10:52 Cloudy 57 13.9 50 10 78 78 S 9 15 29.78 1009 10 16 0.00 0.03
11:52 am 11:52 Cloudy with Light Rain 56 13.3 50 10 81 81 S 9 15 29.73 1007 9 14 0.01 0.25
12:52 pm 12:52 Cloudy 58 14.4 51 10.6 78 78 S 7 11 29.68 1005 10 16 0.00 0.03
1:25 pm 13:25 Mostly Cloudy 60 15.6 52 11.1 75 75 S 9 15 29.68 1005 10 16 0.00 0.00
1:52 pm 13:52 Mostly Cloudy 61 16.1 52 11.1 72 72 S 8 13 29.64 1004 10 16 0.00 0.00
2:52 pm 14:52 Mostly Cloudy 64 17.8 52 11.1 65 65 SSW 15 24 29.61 1003 10 16 0.00 0.00
3:52 pm 15:52 Mostly Cloudy 65 18.3 52 11.1 63 63 SSW 13 20 29.60 1003 10 16 0.00 0.00
4:52 pm 16:52 Partly Cloudy 65 18.3 52 11.1 63 63 SSW 10 17 29.59 1002 10 16 0.00 0.00
5:52 pm 17:52 Mostly Clear 63 17.2 52 11.1 68 68 SW 8 13 29.60 1002 10 16 0.00 0.00
6:52 pm 18:52 Clear 62 16.7 51 10.6 67 67 SW 7 11 29.61 1003 10 16 0.00 0.00
7:52 pm 19:52 Clear 63 17.2 51 10.6 65 65 WSW 8 13 29.62 1003 10 16 0.00 0.00
8:52 pm 20:52 Clear 63 17.2 48 8.9 58 58 WNW 12 19 29.65 1004 10 16 0.00 0.00
9:52 pm 21:52 Clear 63 17.2 42 5.6 47 47 NW 9 15 29.69 1005 10 16 0.00 0.00
10:52 pm 22:52 Clear 60 15.6 41 5 50 50 VRB 3 6 29.71 1006 10 16 0.00 0.00
11:52 pm 23:52 Clear 59 15 41 5 51 51 WNW 8 13 29.72 1007 10 16 0.00 0.00

Powered by AerisWeather